Location: B�rgermoos
(47.6500°N, 9.0667°E)
Time: 17:00:04
(UTC+00:00)

Vanguard 1 - Pass Details

Date: 01 August 2021
Orbit: 652 x 3831 km, 34.3° (Epoch: 17 September)

Event Time Altitude Azimuth Distance (km) Brightness Sun altitude
Rises 10:52:01 0° 233° (SW) 3,130 12.8 59.2°
Reaches altitude 10° 10:54:28 10° 218° (SW) 2,382 12.5 59.4°
Maximum altitude 10:58:52 25° 164° (SSE) 1,945 12.7 59.6°
Drops below altitude 10° 11:05:10 10° 114° (ESE) 3,526 13.3 59.8°
Sets 11:09:45 0° 103° (ESE) 5,071 13.9 60.0°
